Panama City Tyndall AFB, FL

2:33 AM CST on November 24, 2017 (GMT -0600)
Tyndall Air Force Base

Weather History for KPAM - May, 2013

Change the Weather History Date:

Sunday, May 12, 2013

  Actual Average Record
Temperature  
Mean Temperature 70 °F -  
Max Temperature 79 °F 80 °F 87 °F (2003)
Min Temperature 62 °F 64 °F 55 °F (2006)
Cooling Degree Days 6    
Growing Degree Days 20 (Base 50)    
Moisture  
Dew Point 67 °F    
Average Humidity 91    
Maximum Humidity 100    
Minimum Humidity 76    
Precipitation  
Precipitation 0.02 in - - ()
Sea Level Pressure  
Sea Level Pressure 30.04 in    
Wind  
Wind Speed 6 mph (NW)    
Max Wind Speed 15 mph    
Max Gust Speed -    
Visibility 10 miles    
Events      
Averages and records for this station are not official NWS values.
T = Trace of Precipitation, MM = Missing Value Source: NWS Daily Summary

Daily Weather History Graph

Daily Weather History Graph

Search for Another Location

Airport or City:

Trip Planner

Search our weather history database for the weather conditions in past years. The results will help you decide how hot, cold, wet, or windy it might be!

Date:

Astronomy

May. 12, 2013 Rise Set
Actual Time 5:50 AM CDT 7:27 PM CDT
Civil Twilight 5:24 AM CDT 7:53 PM CDT
Nautical Twilight 4:53 AM CDT 8:24 PM CDT
Astronomical Twilight 4:20 AM CDT 8:57 PM CDT
Moon 7:47 AM CDT (5/12) 9:51 PM CDT (5/12)
Length of Visible Light 14h 28m
Length of Day
13h 36m
Waxing Crescent, 7% of the Moon is Illuminated
May 12
Waxing Crescent
May 17
First Quarter
May 24
Full
May 31
Last Quarter
Jun 8
New

Hourly Weather History & Observations

Time (CDT) Temp. Dew Point Humidity Pressure Visibility Wind Dir Wind Speed Gust Speed Precip Events Conditions
12:58 AM 66.9 °F 66.9 °F 100% 29.98 in 10.0 mi NW 6.9 mph - N/A   Clear
1:58 AM 66.9 °F 66.9 °F 100% 29.98 in 10.0 mi NW 6.9 mph - N/A   Clear
2:58 AM 67.1 °F 67.1 °F 100% 29.98 in 10.0 mi Calm Calm - N/A   Clear
3:58 AM 63.7 °F 63.7 °F 100% 29.99 in 10.0 mi Variable 1.2 mph - N/A   Clear
4:33 AM 62.6 °F 62.6 °F 100% 29.98 in 9.0 mi NW 3.5 mph - N/A   Clear
4:43 AM 62.6 °F 62.6 °F 100% 29.98 in 10.0 mi NNW 5.8 mph - N/A   Clear
4:58 AM 63.3 °F 63.3 °F 100% 30.00 in 10.0 mi NNW 5.8 mph - N/A   Clear
5:58 AM 65.3 °F 65.3 °F 100% 30.03 in 10.0 mi Variable 5.8 mph - 0.01 in   Clear
6:18 AM 66.2 °F 66.2 °F 100% 30.03 in 10.0 mi North 8.1 mph - N/A   Mostly Cloudy
6:58 AM 66.0 °F 66.0 °F 100% 30.05 in 10.0 mi Variable 4.6 mph - N/A   Mostly Cloudy
7:03 AM 66.2 °F 66.2 °F 100% 30.04 in 10.0 mi North 2.3 mph - N/A   Scattered Clouds
7:58 AM 68.4 °F 68.4 °F 100% 30.06 in 10.0 mi NE 5.8 mph - N/A   Clear
8:58 AM 71.6 °F 68.4 °F 89% 30.06 in 10.0 mi NE 5.8 mph - N/A   Clear
9:58 AM 74.1 °F 69.1 °F 84% 30.07 in 10.0 mi NE 3.5 mph - N/A   Partly Cloudy
10:58 AM 77.0 °F 70.5 °F 80% 30.07 in 10.0 mi NW 4.6 mph - 0.01 in   Mostly Cloudy
11:58 AM 78.8 °F 71.2 °F 78% 30.06 in 10.0 mi Variable 3.5 mph - N/A   Clear
12:58 PM 79.5 °F 71.2 °F 76% 30.05 in 10.0 mi NW 6.9 mph - N/A   Mostly Cloudy
1:58 PM 77.0 °F 72.3 °F 85% 30.05 in 10.0 mi West 15.0 mph - N/A   Scattered Clouds
2:58 PM 77.9 °F 71.8 °F 81% 30.03 in 10.0 mi West 12.7 mph - N/A   Partly Cloudy
3:58 PM 77.5 °F 70.9 °F 80% 30.03 in 10.0 mi West 15.0 mph - N/A   Clear
4:58 PM 75.4 °F 69.3 °F 81% 30.03 in 10.0 mi West 10.4 mph - N/A   Partly Cloudy
5:58 PM 73.8 °F 70.5 °F 90% 30.03 in 10.0 mi West 13.8 mph - N/A   Clear
6:58 PM 72.5 °F 70.2 °F 92% 30.04 in 10.0 mi West 8.1 mph - N/A   Partly Cloudy
7:58 PM 70.9 °F 68.5 °F 92% 30.06 in 10.0 mi NW 4.6 mph - N/A   Partly Cloudy
8:58 PM 69.1 °F 67.8 °F 96% 30.07 in 10.0 mi Calm Calm - N/A   Clear
9:58 PM 69.3 °F 64.6 °F 85% 30.08 in 10.0 mi NNW 4.6 mph - N/A   Scattered Clouds
10:58 PM 68.5 °F 63.5 °F 84% 30.09 in 10.0 mi NNW 9.2 mph - N/A   Clear
11:55 PM 68.0 °F 60.8 °F 78% 30.08 in 10.0 mi North 5.8 mph - N/A   Clear